Regional Weather Roundup
Issued by NWS

Home | Current Version | Previous Version | Graphics & Text | Print | Product List | Glossary On
Versions: 1 2 3 4 5 6 7 8 9 10 11 12 13 14 15 16 17 18 19 20 21 22 23 24 25 26 27 28 29 30 31 32 33 34 35 36 37 38 39 40 41 42 43 44 45 46 47 48 49 50
000
ASUS43 KLMK 181402
RWRKY
KENTUCKY REGIONAL WEATHER ROUNDUP
NATIONAL WEATHER SERVICE LOUISVILLE KY
1000 AM EDT FRI APR 18 2014

NOTE "FAIR" INDICATES FEW OR NO CLOUDS BELOW 12,000 FEET
WITH NO SIGNIFICANT WEATHER AND/OR OBSTRUCTIONS TO VISIBILITY.

KYZ001>023-026-027-061>063-070>075-181500-
WESTERN AND SOUTH CENTRAL KENTUCKY

CITY           SKY/WX    TMP DP  RH WIND       PRES   REMARKS
PADUCAH        PTSUNNY   57  46  66 CALM      30.28R
HENDERSON      MOSUNNY   55  41  58 CALM      30.28S
OWENSBORO      MOSUNNY   56  45  66 S6        30.29S
HOPKINSVILLE   PTSUNNY   59  45  58 SE8       30.28S
BOWLING GREEN  MOSUNNY   57  43  59 CALM      30.31S
GLASGOW        NOT AVBL
$$

KYZ024-025-028>034-038-045-046-053-181500-
NORTH CENTRAL KENTUCKY

CITY           SKY/WX    TMP DP  RH WIND       PRES   REMARKS
LOUISVILLE/SDF PTSUNNY   53  40  61 CALM      30.31R
LOUISVILLE/LOU PTSUNNY   57  41  55 CALM      30.31S
FORT KNOX      PTSUNNY   54  41  61 S3        30.29S
$$

KYZ035>037-039>044-047>052-055>060-089>105-181500-
NORTHEAST KENTUCKY

CITY           SKY/WX    TMP DP  RH WIND       PRES   REMARKS
LEXINGTON      CLOUDY    57  42  57 SW7       30.32S
COVINGTON      PTSUNNY   59  42  53 CALM      30.30R
FRANKFORT      CLOUDY    55  42  61 SW3       30.31S
$$

KYZ054-064>069-076>088-106>120-181500-
SOUTHEAST KENTUCKY

CITY           SKY/WX    TMP DP  RH WIND       PRES   REMARKS
JACKSON        CLOUDY    55  28  35 CALM      30.33F
LONDON         CLOUDY    55  33  43 CALM      30.33F
SOMERSET       NOT AVBL
MIDDLESBORO    NOT AVBL
MONTICELLO     CLOUDY    57  45  64 CALM      30.35S
$$




USA.gov is the U.S. government's official web portal to all federal, state and local government web resources and services.